Regional Weather Roundup
Issued by NWS Kansas City/Pleasant Hill, MO

Home | Current Version | Previous Version | Text Only | Print | Product List | Glossary On
Versions: 1 2 3 4 5 6 7 8 9 10 11 12 13 14 15 16 17 18 19 20 21 22 23 24 25 26 27 28 29 30 31 32 33 34 35 36 37 38 39 40 41 42 43 44 45 46 47 48 49 50
000
ASUS43 KEAX 011711
RWREAX

WEATHER ROUNDUP FOR EASTERN KANSAS AND NORTHWEST MISSOURI
NATIONAL WEATHER SERVICE KANSAS CITY/PLEASANT HILL MO
1200 PM CDT FRI AUG 01 2014

KSZ040-057-103>105-MOZ028-029-037-043-011800-
...KANSAS CITY METROPOLITAN AREA...

CITY           SKY/WX    TMP DP  RH WIND       PRES   REMARKS
K.C. INTL      MOSUNNY   79  61  53 S8        30.09S
K.C. DOWNTOWN  SUNNY     80  61  52 SE6       30.08S
LEES SUMMIT    PTSUNNY   77  61  57 E8        30.10S
OLATHE - IXD   SUNNY     81  59  47 SE8       30.09F
OLATHE - OJC   MOSUNNY   79  62  56 MISG      30.08F
LAWRENCE       MOSUNNY   82  65  56 SE8       30.07F

$$

MOZ001>008-011>017-020>025-030>033-038>040-044>046-053-054-011800-
...NORTHERN AND CENTRAL MISSOURI...

CITY           SKY/WX    TMP DP  RH WIND       PRES   REMARKS
ST. JOSEPH     PTSUNNY   79  61  53 SE9       30.08S
MOSBY          SUNNY     77  59  53 E8        30.09S
WHITEMAN AFB   PTSUNNY   71  53  52 E6        30.10S
CLINTON        PTSUNNY   75  66  73 CALM      30.10S
SEDALIA        CLOUDY    72  63  73 NE5       30.11S
WARSAW         NOT AVBL
MARSHALL       PTSUNNY   75  64  69 E5        30.11S HAZE
CHILLICOTHE      N/A     72  64  76 CALM      30.12S
MOBERLY        CLOUDY    77  61  57 N5        30.11S
KIRKSVILLE     PTSUNNY   79  61  53 W3        30.11F

$$

MOZ041-047>049-056>058-063>065-088>090-097-011800-
...EASTERN AND SOUTHERN MISSOURI...

CITY           SKY/WX    TMP DP  RH WIND       PRES   REMARKS
ST. LOUIS INTL MOSUNNY   84  59  42 CALM      30.09F
SPIRIT OF STL  MOSUNNY   83  63  50 W3        30.07F
COLUMBIA       PTSUNNY   76  61  59 N7        30.11S
JEFFERSON CITY CLOUDY    79  64  60 NW7       30.09S
HANNIBAL       CLOUDY    77  59  53 NE3       30.10S
ROLLA          SUNNY     81  60  48 CALM      30.09F
LEBANON        SUNNY     81  59  47 CALM      30.11S
OSAGE BEACH      N/A     84  64  51 S8        30.09S
SPRINGFIELD    PTSUNNY   75  66  73 VRB5      30.12F
BRANSON        PTSUNNY   77  63  61 CALM      30.13S
NEVADA         MOSUNNY   82  66  57 CALM      30.11S
JOPLIN         CLOUDY    76  65  68 S6        30.12S
WEST PLAINS    CLOUDY    73  63  70 VRB3      30.13S
MALDEN         SUNNY     82  64  54 S3        30.10S

$$

IAZ060-094-KSZ022-034>040-054-083-096-NEZ052-066-093-011800-
...KANSAS...SOUTHEAST NEBRASKA AND IOWA...

CITY           SKY/WX    TMP DP  RH WIND       PRES   REMARKS
TOPEKA         MOSUNNY   84  60  44 S9        30.06S
MANHATTAN      SUNNY     83  61  47 SW10      30.04S
EMPORIA        SUNNY     83  59  44 S13       30.07S
CHANUTE        MOSUNNY   80  65  59 SE5       30.09F
WICHITA        MOSUNNY   83  59  44 S9        30.07F
OMAHA          PTSUNNY   76  63  64 VRB3      30.09S
LINCOLN        MOSUNNY   79  59  50 E8        30.09R
FALLS CITY     SUNNY     80  64  58 SE13G18   30.06S
LAMONI         PTSUNNY   77  61  57 CALM      30.10S
DES MOINES     MOSUNNY   80  61  52 CALM      30.09S

$$




USA.gov is the U.S. government's official web portal to all federal, state and local government web resources and services.